Trinidad, Colorado, United States (81082)
Lat: 37.17N, Lon: 104.5W
Wx Zone: COZ088
Local Info
Past Weather Observations for Friday, September 12, 2014

NOTE: This archive is for the closest National Weather Service station to Trinidad. Information may differ from the station used for current weather conditions.

Click here for Long-term Archive

Time Weather Temperature Dewpoint Humidity Pressure Winds Precip Visibility
23:54
Overcast
43°F / 6°C 39°F / 4°C 87% 30.33 in
(1027 mb)
NE 4.6 mph
(NE 7 kph)
- 10SM
23:46
Overcast
43°F / 6°C 39°F / 4°C 87% 30.36 in
(1028 mb)
NNE 4.6 mph
(NNE 7 kph)
- 10SM
23:34
Overcast
43°F / 6°C 39°F / 4°C 87% 30.36 in
(1028 mb)
NE 3.5 mph
(NE 6 kph)
- 10SM
22:54
Overcast
43°F / 6°C 39°F / 4°C 87% 30.36 in
(1028 mb)
NE 3.5 mph
(NE 6 kph)
- 10SM
22:07
Overcast
41°F / 5°C 39°F / 4°C 93% 30.39 in
(1029 mb)
ENE 3.5 mph
(ENE 6 kph)
- 9SM
21:54
Overcast
41°F / 5°C 39°F / 4°C 93% 30.39 in
(1029 mb)
ENE 3.5 mph
(ENE 6 kph)
- 7SM
21:45
Overcast
Fog And Mist
41°F / 5°C 39°F / 4°C 93% 30.39 in
(1029 mb)
ENE 4.6 mph
(ENE 7 kph)
- 5SM
21:14
Overcast
Fog And Mist
41°F / 5°C 39°F / 4°C 93% 30.39 in
(1029 mb)
E 4.6 mph
(E 7 kph)
- 3SM
20:54
Overcast
Fog And Mist
41°F / 5°C 39°F / 4°C 93% 30.39 in
(1029 mb)
E 5.8 mph
(E 9 kph)
- 2 1/2SM
20:22
Overcast
Fog And Mist
41°F / 5°C 37°F / 3°C 87% 30.42 in
(1030 mb)
E 5.8 mph
(E 9 kph)
- 5SM
20:13
Overcast
Fog And Mist
41°F / 5°C 39°F / 4°C 93% 30.42 in
(1030 mb)
E 5.8 mph
(E 9 kph)
- 6SM
19:54
Overcast
41°F / 5°C 37°F / 3°C 87% 30.42 in
(1030 mb)
E 6.9 mph
(E 11 kph)
- 7SM
19:37
Overcast
Fog And Mist
41°F / 5°C 37°F / 3°C 87% 30.42 in
(1030 mb)
ENE 5.8 mph
(ENE 9 kph)
- 6SM
18:54
Overcast
43°F / 6°C 37°F / 3°C 81% 30.39 in
(1029 mb)
ENE 6.9 mph
(ENE 11 kph)
- 10SM
17:54
Overcast
43°F / 6°C 37°F / 3°C 81% 30.39 in
(1029 mb)
ENE 8.1 mph
(ENE 13 kph)
- 10SM
16:54
Overcast
43°F / 6°C 37°F / 3°C 81% 30.42 in
(1030 mb)
ENE 10.4 mph
(ENE 17 kph)
- 10SM
16:10
Overcast
43°F / 6°C 37°F / 3°C 81% 30.39 in
(1029 mb)
E 9.2 mph
(E 15 kph)
- 10SM
15:54
Overcast
43°F / 6°C 37°F / 3°C 81% 30.39 in
(1029 mb)
E 8.1 mph
(E 13 kph)
- 10SM
15:14
Overcast
43°F / 6°C 37°F / 3°C 81% 30.39 in
(1029 mb)
ENE 8.1 mph
(ENE 13 kph)
- 10SM
14:54
Overcast
43°F / 6°C 37°F / 3°C 81% 30.39 in
(1029 mb)
E 9.2 mph
(E 15 kph)
- 10SM
13:54
Overcast
43°F / 6°C 37°F / 3°C 81% 30.42 in
(1030 mb)
E 9.2 mph
(E 15 kph)
- 10SM
13:46
Overcast
43°F / 6°C 37°F / 3°C 81% 30.42 in
(1030 mb)
E 8.1 mph
(E 13 kph)
- 10SM
12:54
Overcast
Fog And Mist
41°F / 5°C 37°F / 3°C 87% 30.42 in
(1030 mb)
E 6.9 mph
(E 11 kph)
0.00 in
(0.00 mm)
5SM
12:41
Overcast
Fog And Mist
41°F / 5°C 37°F / 3°C 87% 30.42 in
(1030 mb)
E 5.8 mph
(E 9 kph)
0.00 in
(0.00 mm)
3SM
12:31
Overcast
Light Rain
41°F / 5°C 37°F / 3°C 87% 30.42 in
(1030 mb)
E 9.2 mph
(E 15 kph)
0.00 in
(0.00 mm)
3SM
12:23
Overcast
Light Rain
41°F / 5°C 37°F / 3°C 87% 30.45 in
(1031 mb)
E 6.9 mph
(E 11 kph)
0.00 in
(0.00 mm)
2 1/2SM
11:54
Overcast
Fog And Mist
41°F / 5°C 37°F / 3°C 87% 30.45 in
(1031 mb)
ENE 8.1 mph
(ENE 13 kph)
0.00 in
(0.00 mm)
3SM
11:27
Overcast
41°F / 5°C 37°F / 3°C 87% 30.45 in
(1031 mb)
ENE 6.9 mph
(ENE 11 kph)
- 10SM
10:54
Overcast
41°F / 5°C 36°F / 2°C 81% 30.45 in
(1031 mb)
ENE 3.5 mph
(ENE 6 kph)
- 10SM
09:54
Overcast
39°F / 4°C 36°F / 2°C 87% 30.48 in
(1032 mb)
NE 8.1 mph
(NE 13 kph)
- 10SM
08:54
Overcast
39°F / 4°C 36°F / 2°C 87% 30.48 in
(1032 mb)
NE 5.8 mph
(NE 9 kph)
- 7SM
07:54
Overcast
39°F / 4°C 36°F / 2°C 87% 30.48 in
(1032 mb)
NE 9.2 mph
(NE 15 kph)
- 10SM
06:54
Overcast
37°F / 3°C 36°F / 2°C 93% 30.48 in
(1032 mb)
ENE 9.2 mph
(ENE 15 kph)
- 10SM
06:21
Overcast
37°F / 3°C 36°F / 2°C 93% 30.48 in
(1032 mb)
NE 11.5 mph
(NE 19 kph)
- 7SM
06:16
Overcast
Fog And Mist
37°F / 3°C 36°F / 2°C 93% 30.45 in
(1031 mb)
NE 8.1 mph
(NE 13 kph)
- 2 1/2SM
05:54
Overcast
37°F / 3°C 36°F / 2°C 93% 30.45 in
(1031 mb)
ENE 10.4 mph
(ENE 17 kph)
- 10SM
05:44
Overcast
37°F / 3°C 36°F / 2°C 93% 30.45 in
(1031 mb)
NE 11.5 mph
(NE 19 kph)
- 10SM
04:54
Overcast
Fog And Mist
37°F / 3°C 37°F / 3°C 100% 30.45 in
(1031 mb)
NE 12.7 mph
(NE 20 kph)
- 6SM
04:46
Overcast
39°F / 4°C 37°F / 3°C 93% 30.45 in
(1031 mb)
NE 9.2 mph
(NE 15 kph)
- 10SM
04:10
Overcast
39°F / 4°C 37°F / 3°C 93% 30.45 in
(1031 mb)
NE 9.2 mph
(NE 15 kph)
- 7SM
03:54
Overcast
Fog And Mist
39°F / 4°C 37°F / 3°C 93% 30.45 in
(1031 mb)
NE 11.5 mph
(NE 19 kph)
0.02 in
(0.51 mm)
3SM
03:51
Overcast
Fog And Mist
39°F / 4°C 37°F / 3°C 93% 30.45 in
(1031 mb)
NE 11.5 mph
(NE 19 kph)
0.02 in
(0.51 mm)
3SM
03:33
Overcast
Light Rain
39°F / 4°C 37°F / 3°C 93% 30.45 in
(1031 mb)
NE 10.4 mph
(NE 17 kph)
0.02 in
(0.51 mm)
2SM
02:54
Overcast
Light Rain
39°F / 4°C 39°F / 4°C 100% 30.45 in
(1031 mb)
NE 6.9 mph
(NE 11 kph)
0.03 in
(0.76 mm)
1 1/4SM
02:47
Overcast
Light Rain
39°F / 4°C 39°F / 4°C 100% 30.45 in
(1031 mb)
NE 8.1 mph
(NE 13 kph)
0.02 in
(0.51 mm)
1 1/2SM
02:06
Overcast
Light Rain
39°F / 4°C 39°F / 4°C 100% 30.42 in
(1030 mb)
ENE 9.2 mph
(ENE 15 kph)
0.00 in
(0.00 mm)
1 3/4SM
01:54
Overcast
Light Rain
39°F / 4°C 39°F / 4°C 100% 30.42 in
(1030 mb)
NE 12.7 mph
(NE 20 kph)
0.01 in
(0.25 mm)
2SM
01:47
Overcast
Light Rain
39°F / 4°C 39°F / 4°C 100% 30.42 in
(1030 mb)
ENE 11.5 mph
(ENE 19 kph)
0.01 in
(0.25 mm)
2SM
01:34
Overcast
Light Rain
39°F / 4°C 39°F / 4°C 100% 30.42 in
(1030 mb)
NE 9.2 mph
(NE 15 kph)
0.01 in
(0.25 mm)
4SM
01:23
Overcast
Light Rain
41°F / 5°C 39°F / 4°C 93% 30.42 in
(1030 mb)
NE 13.8 mph
(NE 22 kph)
0.01 in
(0.25 mm)
2SM
01:16
Overcast
Light Rain
41°F / 5°C 39°F / 4°C 93% 30.42 in
(1030 mb)
NE 10.4 mph
(NE 17 kph)
0.00 in
(0.00 mm)
1 3/4SM
01:08
Overcast
Light Rain
41°F / 5°C 39°F / 4°C 93% 30.42 in
(1030 mb)
NE 9.2 mph
(NE 15 kph)
0.00 in
(0.00 mm)
2 1/2SM
00:54
Overcast
Light Rain
41°F / 5°C 39°F / 4°C 93% 30.42 in
(1030 mb)
NE 11.5 mph
(NE 19 kph)
0.02 in
(0.51 mm)
2 1/2SM
00:26
Overcast
Light Rain
43°F / 6°C 41°F / 5°C 93% 30.39 in
(1029 mb)
NE 12.7 mph
(NE 20 kph)
0.01 in
(0.25 mm)
2 1/2SM
Time Weather Temperature Dewpoint Humidity Pressure Winds Precip Visibility


Weather for websites

WeatherForYou.com, LLC is not responsible for any damages or problems caused by this service. Current weather conditions are obtained from the closest station including government and personal stations which may have varying degrees of accuracy. Weather forecasts are derived from the NOAA NDFD. Like all things, this site belongs to Jesus Christ... He just trusts me to maintain it. If you have any questions or comments email webmaster@weatherforyou.com

Copyright © 2014, WeatherForYou.com LLC. All rights reserved.